Weather History for KM30 - July, 2013

Change the Weather History Date:

Sunday, July 21, 2013

  Actual Average (KPAH) Record (KPAH)
Temperature  
Mean Temperature 76 °F 79 °F  
Max Temperature 85 °F 89 °F 99 °F (1983)
Min Temperature 68 °F 69 °F 54 °F (1971)
Degree Days  
Heating Degree Days 0 0  
Month to date heating degree days 0  
Since 1 June heating degree days 4  
Since 1 July heating degree days 0  
Cooling Degree Days 12 14  
Month to date cooling degree days 294  
Year to date cooling degree days 786  
Since 1 June cooling degree days 614  
Growing Degree Days 26 (Base 50)    
Moisture  
Dew Point 72 °F    
Average Humidity 95    
Maximum Humidity 100    
Minimum Humidity 65    
Precipitation  
Precipitation 0.48 in 0.14 in 2.60 in (2009)
Month to date precipitation 3.09  
Year to date precipitation 28.37  
Snow  
Snow 0.00 in 0.00 in 0.00 in (2002)
Month to date snowfall 0.0  
Since 1 June snowfall 0.0  
Since 1 July snowfall 0.0  
Snow Depth -    
Sea Level Pressure  
Sea Level Pressure 29.92 in    
Wind  
Wind Speed 3 mph (South)    
Max Wind Speed 10 mph    
Max Gust Speed 9 mph    
Visibility 8 miles    
Events Rain , Thunderstorm    
T = Trace of Precipitation, MM = Missing Value Source: NWS Daily Summary

Daily Weather History Graph

Daily Weather History Graph

Search for Another Location

Airport or City:

Trip Planner

Search our weather history database for the weather conditions in past years. The results will help you decide how hot, cold, wet, or windy it might be!

Date:

Astronomy

Jul. 21, 2013 Rise Set
Actual Time 5:51 AM CDT 8:11 PM CDT
Civil Twilight 5:21 AM CDT 8:40 PM CDT
Nautical Twilight 4:45 AM CDT 9:17 PM CDT
Astronomical Twilight 4:05 AM CDT 9:57 PM CDT
Moon 7:10 PM CDT (7/21) 4:36 AM CDT (7/21)
Length of Visible Light 15h 19m
Length of Day
14h 19m
Waxing Gibbous, 98% of the Moon is Illuminated
Jul 21
Waxing Gibbous
Jul 22
Full
Jul 29
Last Quarter
Aug 6
New
Aug 14
First Quarter

Hourly Weather History & Observations

Time (CDT) Temp. Heat Index Dew Point Humidity Pressure Visibility Wind Dir Wind Speed Gust Speed Precip Events Conditions
12:15 AM 71.6 °F - 71.6 °F 100% 29.90 in 10.0 mi SSE 6.9 mph - N/A   Clear
12:35 AM 71.6 °F - 71.6 °F 100% 29.91 in 10.0 mi South 4.6 mph - N/A   Clear
12:55 AM 71.4 °F - 71.4 °F 100% 29.91 in 10.0 mi South 3.5 mph - N/A   Clear
1:15 AM 71.2 °F - 71.2 °F 100% 29.90 in 10.0 mi South 4.6 mph - N/A   Clear
1:35 AM 71.1 °F - 71.1 °F 100% 29.91 in 10.0 mi Calm Calm - N/A   Clear
1:55 AM 70.9 °F - 70.9 °F 100% 29.91 in 10.0 mi Calm Calm - N/A   Clear
2:15 AM 70.5 °F - 70.5 °F 100% 29.91 in 10.0 mi Calm Calm - N/A   Clear
2:35 AM 70.2 °F - 70.2 °F 100% 29.91 in 10.0 mi Calm Calm - N/A   Clear
2:55 AM 70.2 °F - 70.2 °F 100% 29.91 in 7.0 mi Calm Calm - N/A   Clear
3:15 AM 69.8 °F - 69.8 °F 100% 29.91 in 5.0 mi Calm Calm - N/A   Clear
3:35 AM 69.8 °F - 69.8 °F 100% 29.91 in 5.0 mi Calm Calm - N/A   Clear
3:55 AM 69.8 °F - 69.8 °F 100% 29.91 in 5.0 mi Calm Calm - N/A   Clear
4:15 AM 69.4 °F - 69.4 °F 100% 29.91 in 5.0 mi Calm Calm - N/A   Clear
4:35 AM 69.3 °F - 69.3 °F 100% 29.92 in 5.0 mi Calm Calm - N/A   Clear
4:55 AM 69.1 °F - 69.1 °F 100% 29.93 in 5.0 mi Calm Calm - N/A   Clear
5:15 AM 69.1 °F - 69.1 °F 100% 29.93 in 4.0 mi Calm Calm - N/A   Clear
5:35 AM 69.1 °F - 69.1 °F 100% 29.94 in 5.0 mi Calm Calm - N/A   Clear
5:55 AM 69.1 °F - 69.1 °F 100% 29.95 in 5.0 mi Calm Calm - N/A   Scattered Clouds
6:15 AM 68.9 °F - 68.9 °F 100% 29.94 in 5.0 mi Calm Calm - N/A   Scattered Clouds
6:35 AM 69.4 °F - 69.4 °F 100% 29.95 in 7.0 mi NNE 3.5 mph - N/A   Mostly Cloudy
6:55 AM 70.0 °F - 70.0 °F 100% 29.95 in 7.0 mi Calm Calm - N/A   Overcast
7:15 AM 70.9 °F - 70.9 °F 100% 29.95 in 10.0 mi Calm Calm - N/A   Overcast
7:35 AM 71.6 °F - 71.6 °F 100% 29.95 in 10.0 mi Calm Calm - N/A   Overcast
7:55 AM 72.0 °F - 72.0 °F 100% 29.96 in 10.0 mi Calm Calm - N/A   Overcast
8:15 AM 73.4 °F - 73.4 °F 100% 29.95 in 10.0 mi Calm Calm - N/A   Overcast
8:35 AM 74.5 °F - 73.8 °F 98% 29.96 in 10.0 mi SE 3.5 mph - N/A   Overcast
8:55 AM 75.2 °F - 73.6 °F 95% 29.96 in 10.0 mi ESE 3.5 mph - N/A   Overcast
9:15 AM 76.1 °F - 73.4 °F 91% 29.96 in 10.0 mi SE 4.6 mph - N/A   Overcast
9:35 AM 76.3 °F - 73.4 °F 91% 29.96 in 7.0 mi SSE 3.5 mph - N/A   Overcast
9:55 AM 77.2 °F - 73.6 °F 89% 29.97 in 10.0 mi ESE 3.5 mph - N/A   Overcast
10:15 AM 77.2 °F - 73.2 °F 88% 29.97 in 7.0 mi South 4.6 mph - N/A   Overcast
10:35 AM 78.6 °F - 73.6 °F 84% 29.97 in 10.0 mi Calm Calm - N/A   Overcast
10:55 AM 79.2 °F - 73.4 °F 82% 29.97 in 10.0 mi Calm Calm - N/A   Overcast
11:15 AM 79.3 °F - 73.2 °F 81% 29.97 in 10.0 mi Calm Calm - N/A   Overcast
11:35 AM 80.1 °F 84.4 °F 73.2 °F 80% 29.97 in 7.0 mi Calm Calm - N/A   Overcast
11:55 AM 81.5 °F 86.9 °F 73.6 °F 77% 29.96 in 10.0 mi South 5.8 mph - N/A   Overcast
12:15 PM 82.6 °F 87.6 °F 72.0 °F 70% 29.95 in 10.0 mi Calm Calm - N/A   Mostly Cloudy
1:15 PM 82.6 °F 87.6 °F 72.0 °F 70% 29.93 in 10.0 mi Calm Calm - N/A   Mostly Cloudy
1:35 PM 83.5 °F 89.4 °F 72.9 °F 70% 29.91 in 10.0 mi Calm Calm - N/A   Mostly Cloudy
1:55 PM 85.5 °F 91.8 °F 72.5 °F 65% 29.90 in 10.0 mi Calm Calm - N/A   Scattered Clouds
2:15 PM 82.9 °F 88.5 °F 72.7 °F 71% 29.89 in 10.0 mi WNW 10.4 mph - N/A Thunderstorm Thunderstorm
2:35 PM 75.9 °F - 72.9 °F 90% 29.89 in 3.0 mi WNW 10.4 mph - 0.09 in Rain , Thunderstorm Heavy Thunderstorms and Rain
2:55 PM 75.2 °F - 75.2 °F 100% 29.89 in 5.0 mi NW 6.9 mph - 0.32 in Rain Light Rain
3:15 PM 75.0 °F - 74.1 °F 97% 29.89 in 4.0 mi Calm Calm - 0.03 in Rain , Thunderstorm Thunderstorms and Rain
3:35 PM 77.2 °F - 76.8 °F 99% 29.88 in 7.0 mi Calm Calm - 0.07 in Rain , Thunderstorm Light Thunderstorms and Rain
3:55 PM 78.6 °F - 75.2 °F 89% 29.88 in 10.0 mi Calm Calm - 0.07 in Thunderstorm Scattered Clouds
4:15 PM 78.8 °F - 76.1 °F 91% 29.88 in 10.0 mi Calm Calm - N/A Thunderstorm Clear
4:35 PM 78.3 °F - 76.1 °F 93% 29.88 in 10.0 mi Calm Calm - N/A Rain Light Rain
4:55 PM 78.6 °F - 74.8 °F 88% 29.88 in 10.0 mi Calm Calm - N/A Rain , Thunderstorm Light Thunderstorms and Rain
5:15 PM 78.6 °F - 75.7 °F 91% 29.89 in 10.0 mi South 4.6 mph - N/A Thunderstorm Mostly Cloudy
5:35 PM 77.2 °F - 75.4 °F 94% 29.88 in 10.0 mi Calm Calm - N/A Thunderstorm Scattered Clouds
5:55 PM 77.0 °F - 75.9 °F 96% 29.89 in 10.0 mi SSE 3.5 mph - N/A Thunderstorm Thunderstorm
6:15 PM 75.7 °F - 75.6 °F 99% 29.91 in 10.0 mi South 3.5 mph 9.2 mph 0.01 in Rain , Thunderstorm Light Thunderstorms and Rain
6:35 PM 74.5 °F - 74.5 °F 100% 29.89 in 5.0 mi South 6.9 mph - 0.02 in Rain , Thunderstorm Rain
6:55 PM 73.4 °F - 73.4 °F 100% 29.90 in 7.0 mi WSW 10.4 mph - 0.04 in Rain , Thunderstorm Rain
7:15 PM 72.5 °F - 72.5 °F 100% 29.88 in 5.0 mi West 4.6 mph - 0.02 in Rain , Thunderstorm Rain
7:35 PM 72.5 °F - 72.5 °F 100% 29.88 in 10.0 mi SW 6.9 mph - 0.04 in Rain Light Rain
7:55 PM 72.7 °F - 72.7 °F 100% 29.88 in 10.0 mi SW 4.6 mph - 0.05 in Rain Light Rain
8:15 PM 72.7 °F - 72.5 °F 99% 29.88 in 10.0 mi SW 3.5 mph - N/A   Scattered Clouds
8:35 PM 72.5 °F - 72.5 °F 100% 29.88 in 10.0 mi South 3.5 mph - N/A   Clear
8:55 PM 72.1 °F - 72.1 °F 100% 29.89 in 10.0 mi SSW 3.5 mph - N/A   Clear
9:15 PM 72.3 °F - 72.3 °F 100% 29.90 in 10.0 mi South 4.6 mph - N/A   Clear
9:35 PM 72.5 °F - 72.5 °F 100% 29.90 in 10.0 mi South 3.5 mph - N/A   Clear
9:55 PM 72.5 °F - 72.5 °F 100% 29.91 in 10.0 mi South 5.8 mph - N/A   Clear
10:15 PM 72.5 °F - 72.5 °F 100% 29.91 in 10.0 mi South 4.6 mph - N/A   Clear
10:35 PM 72.5 °F - 72.5 °F 100% 29.90 in 7.0 mi SSE 3.5 mph - N/A   Scattered Clouds
10:55 PM 72.5 °F - 72.5 °F 100% 29.89 in 7.0 mi SSE 4.6 mph - N/A   Clear
11:15 PM 72.5 °F - 72.5 °F 100% 29.89 in 10.0 mi South 4.6 mph - N/A   Clear
11:35 PM 72.5 °F - 72.5 °F 100% 29.89 in 10.0 mi Calm Calm - N/A   Clear
11:55 PM 72.5 °F - 72.5 °F 100% 29.88 in 7.0 mi Calm Calm - N/A Thunderstorm Scattered Clouds